Location: Ahausen
(50.4985°N, 8.2722°E)
Time: 11:21:19
(UTC+00:00)

YUBILEINY - Visible Passes

Search period start: 30 June 2022 00:00
Search period end: 10 July 2022 00:00
Orbit: 1479 x 1507 km, 82.5° (Epoch: 29 June)

Date Brightness Start Highest point End Pass type
(mag) Time Alt. Az. Time Alt. Az. Time Alt. Az.
30 Jun ? 00:53:44 10° NNE 00:57:40 13° NE 01:01:36 10° ENE visible
01 Jul ? 01:59:37 10° N 02:07:05 29° ENE 02:14:27 10° ESE visible
02 Jul ? 01:10:34 10° N 01:16:21 19° NE 01:22:06 10° E visible
03 Jul ? 00:22:23 10° NNE 00:25:10 12° NE 00:27:56 10° NE visible
03 Jul ? 02:17:03 10° N 02:25:15 40° ENE 02:33:21 10° SE visible
04 Jul ? 01:27:46 10° N 01:34:48 26° NE 01:41:46 10° ESE visible
05 Jul ? 00:38:51 10° N 00:43:57 16° NE 00:49:00 10° E visible
05 Jul ? 02:34:33 10° N 02:43:13 56° ENE 02:51:46 10° SSE visible
05 Jul ? 23:52:31 10° NNE 23:52:38 10° NNE 23:52:44 10° NE visible
06 Jul ? 01:45:07 10° N 01:53:03 35° ENE 02:00:53 10° SE visible
07 Jul ? 00:55:56 10° N 01:02:30 22° NE 01:08:59 10° E visible
08 Jul ? 00:07:13 10° NNE 00:11:30 14° NE 00:15:45 10° ENE visible
08 Jul ? 02:02:36 10° N 02:11:06 49° ENE 02:19:29 10° SE visible
09 Jul ? 01:13:14 10° N 01:20:49 31° ENE 01:28:18 10° ESE visible
